Wetterdaten: Dienstag, 08.10.2013
Datum Zeit Temperatur Luftfeuchte Luftdruck Regen Wind Richtung Richtung Taupunkt Windchill Windben
08.10.2013 00:00 10,7 C 96 % 1024,6 hPa 0,0 l/m 0,6 km/h (0 Bft) N-NO 22 10,1 C 10,9 C 0,0 km/h (0 Bft)
08.10.2013 00:05 10,7 C 96 % 1024,4 hPa 0,0 l/m 0,5 km/h (0 Bft) N 360 10,1 C 10,9 C 1,9 km/h (1 Bft)
08.10.2013 00:10 10,7 C 96 % 1024,4 hPa 0,0 l/m 0,5 km/h (0 Bft) N-NW 337 10,1 C 10,9 C 1,9 km/h (1 Bft)
08.10.2013 00:15 10,7 C 96 % 1024,4 hPa 0,0 l/m 0,8 km/h (0 Bft) NW 315 10,1 C 10,8 C 1,9 km/h (1 Bft)
08.10.2013 00:20 10,7 C 96 % 1024,4 hPa 0,0 l/m 0,8 km/h (0 Bft) NW 315 10,1 C 10,8 C 3,7 km/h (1 Bft)
08.10.2013 00:23 10,7 C 96 % 1024,3 hPa 0,0 l/m 0,3 km/h (0 Bft) O-NO 67 10,1 C 10,8 C 0,0 km/h (0 Bft)
08.10.2013 00:25 10,7 C 96 % 1024,3 hPa 0,0 l/m 0,3 km/h (0 Bft) O-NO 67 10,1 C 10,8 C 0,0 km/h (0 Bft)
08.10.2013 00:30 10,7 C 96 % 1024,3 hPa 0,0 l/m 0,2 km/h (0 Bft) N-NO 22 10,1 C 10,8 C 0,0 km/h (0 Bft)
08.10.2013 00:35 10,7 C 96 % 1024,3 hPa 0,0 l/m 0,0 km/h (0 Bft) W-NW 292 10,1 C 10,8 C 0,0 km/h (0 Bft)
08.10.2013 00:40 10,7 C 96 % 1024,3 hPa 0,0 l/m 0,0 km/h (0 Bft) W-NW 292 10,1 C 10,8 C 0,0 km/h (0 Bft)
08.10.2013 00:45 10,7 C 96 % 1024,3 hPa 0,0 l/m 0,0 km/h (0 Bft) W-SW 247 10,1 C 10,8 C 0,0 km/h (0 Bft)
08.10.2013 00:50 10,7 C 96 % 1024,3 hPa 0,0 l/m 0,0 km/h (0 Bft) SO 135 10,1 C 10,8 C 0,0 km/h (0 Bft)
08.10.2013 00:55 10,6 C 96 % 1024,3 hPa 0,0 l/m 0,0 km/h (0 Bft) N-NW 337 10,0 C 10,8 C 0,0 km/h (0 Bft)
08.10.2013 01:00 10,6 C 96 % 1024,3 hPa 0,0 l/m 0,0 km/h (0 Bft) N-NW 337 10,0 C 10,8 C 0,0 km/h (0 Bft)
08.10.2013 01:05 10,6 C 96 % 1024,2 hPa 0,0 l/m 0,0 km/h (0 Bft) NW 315 10,0 C 10,8 C 0,0 km/h (0 Bft)
08.10.2013 01:10 10,6 C 96 % 1024,2 hPa 0,0 l/m 0,0 km/h (0 Bft) N 360 10,0 C 10,8 C 0,0 km/h (0 Bft)
08.10.2013 01:15 10,6 C 96 % 1024,2 hPa 0,0 l/m 0,0 km/h (0 Bft) W-NW 292 10,0 C 10,8 C 0,0 km/h (0 Bft)
08.10.2013 01:20 10,6 C 96 % 1024,2 hPa 0,0 l/m 0,0 km/h (0 Bft) W 270 10,0 C 10,8 C 0,0 km/h (0 Bft)
08.10.2013 01:25 10,6 C 96 % 1024,2 hPa 0,0 l/m 0,0 km/h (0 Bft) W-NW 292 10,0 C 10,8 C 0,0 km/h (0 Bft)
08.10.2013 01:30 10,6 C 96 % 1024,2 hPa 0,0 l/m 0,0 km/h (0 Bft) N 360 10,0 C 10,8 C 0,0 km/h (0 Bft)
08.10.2013 01:35 10,5 C 96 % 1024,2 hPa 0,0 l/m 0,0 km/h (0 Bft) N 360 9,9 C 10,7 C 0,0 km/h (0 Bft)
08.10.2013 01:40 10,5 C 96 % 1024,2 hPa 0,0 l/m 0,2 km/h (0 Bft) NO 45 9,9 C 10,7 C 0,0 km/h (0 Bft)
08.10.2013 01:45 10,5 C 96 % 1024,1 hPa 0,0 l/m 0,6 km/h (0 Bft) N-NO 22 9,9 C 10,7 C 0,0 km/h (0 Bft)
08.10.2013 01:50 10,4 C 96 % 1024,1 hPa 0,0 l/m 0,8 km/h (0 Bft) N 360 9,8 C 10,6 C 2,7 km/h (1 Bft)
08.10.2013 01:55 10,4 C 96 % 1024,1 hPa 0,0 l/m 0,5 km/h (0 Bft) O 90 9,8 C 10,6 C 0,0 km/h (0 Bft)
08.10.2013 02:00 10,4 C 96 % 1024,1 hPa 0,0 l/m 0,2 km/h (0 Bft) O-SO 112 9,8 C 10,6 C 0,0 km/h (0 Bft)
08.10.2013 02:05 10,4 C 96 % 1024,2 hPa 0,0 l/m 0,2 km/h (0 Bft) O 90 9,8 C 10,5 C 0,0 km/h (0 Bft)
08.10.2013 02:10 10,4 C 96 % 1024,2 hPa 0,0 l/m 0,5 km/h (0 Bft) NO 45 9,8 C 10,5 C 2,7 km/h (1 Bft)
08.10.2013 02:15 10,4 C 96 % 1024,2 hPa 0,0 l/m 1,1 km/h (1 Bft) N 360 9,8 C 10,5 C 1,6 km/h (1 Bft)
08.10.2013 02:20 10,4 C 96 % 1024,2 hPa 0,0 l/m 1,0 km/h (0 Bft) N 360 9,8 C 10,5 C 1,6 km/h (1 Bft)
08.10.2013 02:25 10,4 C 96 % 1024,2 hPa 0,0 l/m 0,2 km/h (0 Bft) NO 45 9,8 C 10,5 C 0,0 km/h (0 Bft)
08.10.2013 02:30 10,4 C 96 % 1024,2 hPa 0,0 l/m 0,3 km/h (0 Bft) N-NW 337 9,8 C 10,5 C 2,4 km/h (1 Bft)
08.10.2013 02:35 10,4 C 96 % 1024,2 hPa 0,0 l/m 0,3 km/h (0 Bft) N 360 9,8 C 10,5 C 0,0 km/h (0 Bft)
08.10.2013 02:40 10,4 C 96 % 1024,2 hPa 0,0 l/m 0,8 km/h (0 Bft) W-NW 292 9,8 C 10,5 C 0,0 km/h (0 Bft)
08.10.2013 02:45 10,4 C 96 % 1024,2 hPa 0,0 l/m 0,8 km/h (0 Bft) NW 315 9,8 C 10,5 C 0,0 km/h (0 Bft)
08.10.2013 02:50 10,4 C 96 % 1024,2 hPa 0,0 l/m 0,3 km/h (0 Bft) N 360 9,8 C 10,5 C 0,0 km/h (0 Bft)
08.10.2013 02:55 10,4 C 96 % 1024,2 hPa 0,0 l/m 0,0 km/h (0 Bft) N 360 9,8 C 10,5 C 0,0 km/h (0 Bft)
08.10.2013 03:00 10,4 C 96 % 1024,2 hPa 0,0 l/m 0,0 km/h (0 Bft) N 360 9,8 C 10,5 C 0,0 km/h (0 Bft)
08.10.2013 03:05 10,4 C 96 % 1024,1 hPa 0,0 l/m 0,0 km/h (0 Bft) N 360 9,8 C 10,5 C 0,0 km/h (0 Bft)
08.10.2013 03:10 10,4 C 96 % 1024,1 hPa 0,0 l/m 0,2 km/h (0 Bft) W-SW 247 9,8 C 10,5 C 0,0 km/h (0 Bft)
08.10.2013 03:15 10,4 C 96 % 1024,1 hPa 0,0 l/m 0,3 km/h (0 Bft) W 270 9,8 C 10,5 C 0,0 km/h (0 Bft)
08.10.2013 03:20 10,4 C 96 % 1024,1 hPa 0,0 l/m 0,2 km/h (0 Bft) W-NW 292 9,8 C 10,5 C 0,0 km/h (0 Bft)
08.10.2013 03:25 10,4 C 96 % 1024,0 hPa 0,0 l/m 0,2 km/h (0 Bft) N-NW 337 9,8 C 10,5 C 2,4 km/h (1 Bft)
08.10.2013 03:30 10,4 C 96 % 1024,0 hPa 0,0 l/m 0,3 km/h (0 Bft) NW 315 9,8 C 10,5 C 0,0 km/h (0 Bft)
08.10.2013 03:35 10,4 C 96 % 1024,0 hPa 0,0 l/m 1,1 km/h (1 Bft) W 270 9,8 C 10,5 C 0,0 km/h (0 Bft)
08.10.2013 03:40 10,4 C 96 % 1024,0 hPa 0,0 l/m 1,1 km/h (1 Bft) N-NW 337 9,8 C 10,5 C 2,9 km/h (1 Bft)
08.10.2013 03:45 10,4 C 96 % 1024,0 hPa 0,0 l/m 1,6 km/h (1 Bft) N 360 9,8 C 10,5 C 2,7 km/h (1 Bft)
08.10.2013 03:50 10,4 C 96 % 1024,0 hPa 0,0 l/m 2,1 km/h (1 Bft) N-NW 337 9,8 C 10,5 C 0,0 km/h (0 Bft)
08.10.2013 03:55 10,3 C 96 % 1024,0 hPa 0,0 l/m 1,4 km/h (1 Bft) N-NW 337 9,7 C 10,5 C 0,0 km/h (0 Bft)
08.10.2013 04:00 10,3 C 96 % 1024,0 hPa 0,0 l/m 1,0 km/h (0 Bft) N-NW 337 9,7 C 10,5 C 4,5 km/h (1 Bft)
08.10.2013 04:05 10,3 C 96 % 1023,9 hPa 0,0 l/m 1,1 km/h (1 Bft) N 360 9,7 C 10,5 C 2,4 km/h (1 Bft)
08.10.2013 04:10 10,3 C 96 % 1023,9 hPa 0,0 l/m 0,8 km/h (0 Bft) W-NW 292 9,7 C 10,5 C 0,0 km/h (0 Bft)
08.10.2013 04:15 10,3 C 96 % 1023,9 hPa 0,0 l/m 1,6 km/h (1 Bft) N 360 9,7 C 10,4 C 4,5 km/h (1 Bft)
08.10.2013 04:20 10,3 C 96 % 1023,9 hPa 0,0 l/m 1,9 km/h (1 Bft) N-NW 337 9,7 C 10,4 C 4,7 km/h (1 Bft)
08.10.2013 04:25 10,2 C 96 % 1023,8 hPa 0,0 l/m 1,8 km/h (1 Bft) N-NO 22 9,6 C 10,4 C 3,9 km/h (1 Bft)
08.10.2013 04:30 10,2 C 96 % 1023,8 hPa 0,0 l/m 1,8 km/h (1 Bft) O-NO 67 9,6 C 10,3 C 5,3 km/h (1 Bft)
08.10.2013 04:35 10,2 C 96 % 1023,8 hPa 0,0 l/m 1,0 km/h (0 Bft) N-NW 337 9,6 C 10,3 C 3,7 km/h (1 Bft)
08.10.2013 04:40 10,2 C 96 % 1023,8 hPa 0,0 l/m 0,8 km/h (0 Bft) N 360 9,6 C 10,3 C 4,3 km/h (1 Bft)
08.10.2013 04:45 10,1 C 96 % 1023,9 hPa 0,0 l/m 1,3 km/h (1 Bft) NO 45 9,5 C 10,3 C 0,0 km/h (0 Bft)
08.10.2013 04:50 10,1 C 96 % 1023,9 hPa 0,0 l/m 1,6 km/h (1 Bft) W-NW 292 9,5 C 10,3 C 0,0 km/h (0 Bft)
08.10.2013 04:55 10,2 C 96 % 1023,9 hPa 0,0 l/m 0,5 km/h (0 Bft) N-NW 337 9,6 C 10,3 C 0,0 km/h (0 Bft)
08.10.2013 05:00 10,1 C 96 % 1023,9 hPa 0,0 l/m 0,0 km/h (0 Bft) W-SW 247 9,5 C 10,3 C 0,0 km/h (0 Bft)
08.10.2013 05:05 10,1 C 96 % 1023,8 hPa 0,0 l/m 0,0 km/h (0 Bft) N-NW 337 9,5 C 10,3 C 0,0 km/h (0 Bft)
08.10.2013 05:10 10,1 C 96 % 1023,8 hPa 0,0 l/m 0,0 km/h (0 Bft) N-NO 22 9,5 C 10,3 C 0,0 km/h (0 Bft)
08.10.2013 05:15 10,1 C 96 % 1023,8 hPa 0,0 l/m 0,2 km/h (0 Bft) N-NW 337 9,5 C 10,3 C 2,3 km/h (1 Bft)
08.10.2013 05:20 10,1 C 96 % 1023,8 hPa 0,0 l/m 0,2 km/h (0 Bft) W-NW 292 9,5 C 10,3 C 1,9 km/h (1 Bft)
08.10.2013 05:25 10,1 C 96 % 1023,7 hPa 0,0 l/m 0,8 km/h (0 Bft) W 270 9,5 C 10,2 C 4,0 km/h (1 Bft)
08.10.2013 05:30 10,1 C 96 % 1023,7 hPa 0,0 l/m 1,0 km/h (0 Bft) W 270 9,5 C 10,2 C 0,0 km/h (0 Bft)
08.10.2013 05:35 10,1 C 96 % 1023,7 hPa 0,0 l/m 0,8 km/h (0 Bft) O-NO 67 9,5 C 10,2 C 0,0 km/h (0 Bft)
08.10.2013 05:40 10,1 C 96 % 1023,7 hPa 0,0 l/m 0,5 km/h (0 Bft) NW 315 9,5 C 10,2 C 2,7 km/h (1 Bft)
08.10.2013 05:45 10,1 C 96 % 1023,9 hPa 0,0 l/m 0,3 km/h (0 Bft) W-NW 292 9,5 C 10,2 C 0,0 km/h (0 Bft)
08.10.2013 05:50 10,0 C 96 % 1023,9 hPa 0,0 l/m 0,3 km/h (0 Bft) N-NO 22 9,4 C 10,2 C 0,0 km/h (0 Bft)
08.10.2013 05:55 10,1 C 96 % 1023,9 hPa 0,0 l/m 0,0 km/h (0 Bft) W-SW 247 9,5 C 10,2 C 0,0 km/h (0 Bft)
08.10.2013 06:00 10,1 C 96 % 1023,9 hPa 0,0 l/m 0,2 km/h (0 Bft) W-NW 292 9,5 C 10,2 C 1,6 km/h (1 Bft)
08.10.2013 06:05 10,1 C 96 % 1023,7 hPa 0,0 l/m 0,6 km/h (0 Bft) W-SW 247 9,5 C 10,2 C 0,0 km/h (0 Bft)
08.10.2013 06:10 10,0 C 96 % 1023,7 hPa 0,0 l/m 0,6 km/h (0 Bft) S-SW 202 9,4 C 10,2 C 1,8 km/h (1 Bft)
08.10.2013 06:15 10,1 C 96 % 1023,7 hPa 0,0 l/m 0,3 km/h (0 Bft) S-SW 202 9,5 C 10,2 C 0,0 km/h (0 Bft)
08.10.2013 06:20 10,0 C 96 % 1023,7 hPa 0,0 l/m 0,2 km/h (0 Bft) S 180 9,4 C 10,2 C 0,0 km/h (0 Bft)
08.10.2013 06:23 10,0 C 96 % 1024,0 hPa 0,0 l/m 0,0 km/h (0 Bft) S 180 9,4 C 10,2 C 0,0 km/h (0 Bft)
08.10.2013 06:25 10,0 C 96 % 1024,0 hPa 0,0 l/m 0,0 km/h (0 Bft) S 180 9,4 C 10,2 C 0,0 km/h (0 Bft)
08.10.2013 06:30 10,0 C 96 % 1024,0 hPa 0,0 l/m 0,0 km/h (0 Bft) N-NW 337 9,4 C 10,1 C 0,0 km/h (0 Bft)
08.10.2013 06:35 10,0 C 96 % 1024,0 hPa 0,0 l/m 0,0 km/h (0 Bft) W-SW 247 9,4 C 10,1 C 0,0 km/h (0 Bft)
08.10.2013 06:40 10,0 C 96 % 1024,0 hPa 0,0 l/m 0,0 km/h (0 Bft) S 180 9,4 C 10,1 C 0,0 km/h (0 Bft)
08.10.2013 06:45 10,0 C 96 % 1024,1 hPa 0,0 l/m 0,0 km/h (0 Bft) W-NW 292 9,4 C 10,1 C 0,0 km/h (0 Bft)
08.10.2013 06:50 10,0 C 96 % 1024,1 hPa 0,0 l/m 0,0 km/h (0 Bft) W 270 9,4 C 10,1 C 0,0 km/h (0 Bft)
08.10.2013 06:55 10,0 C 96 % 1024,1 hPa 0,0 l/m 0,0 km/h (0 Bft) N-NW 337 9,4 C 10,1 C 0,0 km/h (0 Bft)
08.10.2013 07:00 10,0 C 96 % 1024,1 hPa 0,0 l/m 0,0 km/h (0 Bft) N-NW 337 9,4 C 10,1 C 0,0 km/h (0 Bft)
08.10.2013 07:05 10,0 C 96 % 1023,9 hPa 0,0 l/m 0,0 km/h (0 Bft) W-NW 292 9,4 C 10,1 C 0,0 km/h (0 Bft)
08.10.2013 07:10 10,0 C 96 % 1023,9 hPa 0,0 l/m 0,0 km/h (0 Bft) W-SW 247 9,4 C 10,0 C 0,0 km/h (0 Bft)
08.10.2013 07:15 10,0 C 96 % 1023,9 hPa 0,0 l/m 0,0 km/h (0 Bft) W 270 9,4 C 10,0 C 0,0 km/h (0 Bft)
08.10.2013 07:20 10,1 C 96 % 1023,9 hPa 0,0 l/m 0,0 km/h (0 Bft) W-SW 247 9,5 C 10,0 C 0,0 km/h (0 Bft)
08.10.2013 07:25 10,0 C 96 % 1024,0 hPa 0,0 l/m 0,0 km/h (0 Bft) W-SW 247 9,4 C 10,0 C 0,0 km/h (0 Bft)
08.10.2013 07:30 10,0 C 96 % 1024,0 hPa 0,0 l/m 0,0 km/h (0 Bft) W-SW 247 9,4 C 10,0 C 1,6 km/h (1 Bft)
08.10.2013 07:35 10,0 C 96 % 1024,0 hPa 0,0 l/m 0,0 km/h (0 Bft) W 270 9,4 C 10,1 C 0,0 km/h (0 Bft)
08.10.2013 07:40 9,9 C 96 % 1024,0 hPa 0,0 l/m 0,0 km/h (0 Bft) W-SW 247 9,3 C 10,0 C 0,0 km/h (0 Bft)
08.10.2013 07:45 9,9 C 96 % 1024,1 hPa 0,0 l/m 0,2 km/h (0 Bft) S 180 9,3 C 10,0 C 0,0 km/h (0 Bft)
08.10.2013 07:50 9,9 C 96 % 1024,1 hPa 0,0 l/m 0,5 km/h (0 Bft) W-SW 247 9,3 C 10,0 C 1,9 km/h (1 Bft)
08.10.2013 07:55 9,8 C 96 % 1024,1 hPa 0,0 l/m 0,3 km/h (0 Bft) S 180 9,2 C 9,9 C 0,0 km/h (0 Bft)
08.10.2013 08:00 9,7 C 96 % 1024,1 hPa 0,0 l/m 0,2 km/h (0 Bft) S 180 9,1 C 9,9 C 0,0 km/h (0 Bft)
08.10.2013 08:05 9,7 C 96 % 1023,9 hPa 0,0 l/m 0,2 km/h (0 Bft) O-NO 67 9,1 C 9,8 C 0,0 km/h (0 Bft)
08.10.2013 08:10 9,7 C 96 % 1023,9 hPa 0,0 l/m 0,2 km/h (0 Bft) O 90 9,1 C 9,8 C 0,0 km/h (0 Bft)
08.10.2013 08:15 9,8 C 96 % 1023,9 hPa 0,0 l/m 0,2 km/h (0 Bft) SO 135 9,2 C 9,8 C 0,0 km/h (0 Bft)
08.10.2013 08:20 9,8 C 96 % 1023,9 hPa 0,0 l/m 0,0 km/h (0 Bft) SO 135 9,2 C 9,9 C 0,0 km/h (0 Bft)
08.10.2013 08:25 9,9 C 96 % 1024,1 hPa 0,0 l/m 0,0 km/h (0 Bft) SO 135 9,3 C 9,9 C 0,0 km/h (0 Bft)
08.10.2013 08:30 9,9 C 96 % 1024,1 hPa 0,0 l/m 0,0 km/h (0 Bft) SO 135 9,3 C 9,9 C 0,0 km/h (0 Bft)
08.10.2013 08:35 9,9 C 96 % 1024,1 hPa 0,0 l/m 0,0 km/h (0 Bft) SO 135 9,3 C 10,0 C 0,0 km/h (0 Bft)
08.10.2013 08:40 10,0 C 96 % 1024,1 hPa 0,0 l/m 0,0 km/h (0 Bft) SO 135 9,4 C 10,1 C 0,0 km/h (0 Bft)
08.10.2013 08:45 10,0 C 96 % 1024,1 hPa 0,0 l/m 0,0 km/h (0 Bft) S-SO 157 9,4 C 10,0 C 0,0 km/h (0 Bft)
08.10.2013 08:50 10,0 C 96 % 1024,1 hPa 0,0 l/m 0,0 km/h (0 Bft) S-SO 157 9,4 C 10,1 C 0,0 km/h (0 Bft)
08.10.2013 08:55 10,1 C 96 % 1024,1 hPa 0,0 l/m 0,0 km/h (0 Bft) S-SO 157 9,5 C 10,2 C 0,0 km/h (0 Bft)
08.10.2013 09:00 10,1 C 96 % 1024,1 hPa 0,0 l/m 0,0 km/h (0 Bft) S-SO 157 9,5 C 10,2 C 0,0 km/h (0 Bft)
08.10.2013 09:05 10,2 C 96 % 1024,3 hPa 0,0 l/m 0,0 km/h (0 Bft) S-SO 157 9,6 C 10,3 C 0,0 km/h (0 Bft)
08.10.2013 09:10 10,3 C 96 % 1024,3 hPa 0,0 l/m 0,2 km/h (0 Bft) S-SO 157 9,7 C 10,3 C 0,0 km/h (0 Bft)
08.10.2013 09:15 10,4 C 96 % 1024,3 hPa 0,0 l/m 0,2 km/h (0 Bft) SW 225 9,8 C 10,4 C 0,0 km/h (0 Bft)
08.10.2013 09:20 10,5 C 96 % 1024,3 hPa 0,0 l/m 0,2 km/h (0 Bft) S 180 9,9 C 10,5 C 0,0 km/h (0 Bft)
08.10.2013 09:25 10,6 C 96 % 1024,4 hPa 0,0 l/m 0,2 km/h (0 Bft) S 180 10,0 C 10,6 C 0,0 km/h (0 Bft)
08.10.2013 09:30 10,7 C 96 % 1024,4 hPa 0,0 l/m 0,0 km/h (0 Bft) S 180 10,1 C 10,8 C 0,0 km/h (0 Bft)
08.10.2013 09:35 10,7 C 96 % 1024,4 hPa 0,0 l/m 0,0 km/h (0 Bft) W-SW 247 10,1 C 10,8 C 0,0 km/h (0 Bft)
08.10.2013 09:40 10,7 C 96 % 1024,4 hPa 0,0 l/m 0,0 km/h (0 Bft) S-SW 202 10,1 C 10,8 C 0,0 km/h (0 Bft)
08.10.2013 09:45 10,6 C 96 % 1024,6 hPa 0,0 l/m 0,0 km/h (0 Bft) W-SW 247 10,0 C 10,9 C 0,0 km/h (0 Bft)
08.10.2013 09:50 10,7 C 96 % 1024,6 hPa 0,0 l/m 0,2 km/h (0 Bft) S 180 10,1 C 10,9 C 0,0 km/h (0 Bft)
08.10.2013 09:55 10,6 C 96 % 1024,6 hPa 0,0 l/m 0,3 km/h (0 Bft) S 180 10,0 C 10,9 C 0,0 km/h (0 Bft)
08.10.2013 10:00 10,6 C 96 % 1024,6 hPa 0,0 l/m 1,0 km/h (0 Bft) S-SW 202 10,0 C 10,9 C 1,6 km/h (1 Bft)
08.10.2013 10:05 10,7 C 96 % 1024,5 hPa 0,0 l/m 1,1 km/h (1 Bft) W-SW 247 10,1 C 10,9 C 0,0 km/h (0 Bft)
08.10.2013 10:10 10,9 C 96 % 1024,5 hPa 0,0 l/m 0,5 km/h (0 Bft) S 180 10,3 C 11,0 C 0,0 km/h (0 Bft)
08.10.2013 10:15 11,1 C 96 % 1024,5 hPa 0,0 l/m 0,5 km/h (0 Bft) S-SW 202 10,5 C 11,2 C 2,6 km/h (1 Bft)
08.10.2013 10:20 11,1 C 96 % 1024,5 hPa 0,0 l/m 1,4 km/h (1 Bft) S 180 10,5 C 11,3 C 3,1 km/h (1 Bft)
08.10.2013 10:25 11,0 C 95 % 1024,8 hPa 0,0 l/m 1,8 km/h (1 Bft) W-SW 247 10,2 C 11,5 C 1,6 km/h (1 Bft)
08.10.2013 10:30 11,2 C 95 % 1024,8 hPa 0,0 l/m 1,4 km/h (1 Bft) S 180 10,4 C 11,5 C 2,3 km/h (1 Bft)
08.10.2013 10:35 11,1 C 95 % 1024,8 hPa 0,0 l/m 2,3 km/h (1 Bft) S-SO 157 10,3 C 11,5 C 4,8 km/h (1 Bft)
08.10.2013 10:40 11,1 C 95 % 1024,8 hPa 0,0 l/m 2,7 km/h (1 Bft) S-SW 202 10,3 C 11,5 C 5,6 km/h (1 Bft)
08.10.2013 10:45 11,1 C 95 % 1024,8 hPa 0,0 l/m 2,4 km/h (1 Bft) S 180 10,3 C 11,6 C 1,6 km/h (1 Bft)
08.10.2013 10:50 11,1 C 95 % 1024,8 hPa 0,0 l/m 2,1 km/h (1 Bft) S 180 10,3 C 11,6 C 2,9 km/h (1 Bft)
08.10.2013 10:55 11,1 C 95 % 1024,8 hPa 0,0 l/m 1,8 km/h (1 Bft) SO 135 10,3 C 11,6 C 2,7 km/h (1 Bft)
08.10.2013 11:00 11,2 C 95 % 1024,8 hPa 0,0 l/m 1,8 km/h (1 Bft) W-SW 247 10,4 C 11,6 C 2,1 km/h (1 Bft)
08.10.2013 11:05 11,2 C 95 % 1024,8 hPa 0,0 l/m 0,8 km/h (0 Bft) SW 225 10,4 C 11,7 C 2,3 km/h (1 Bft)
08.10.2013 11:10 11,2 C 95 % 1024,8 hPa 0,0 l/m 1,0 km/h (0 Bft) S 180 10,4 C 11,7 C 2,7 km/h (1 Bft)
08.10.2013 11:15 11,3 C 95 % 1024,8 hPa 0,0 l/m 1,6 km/h (1 Bft) S 180 10,5 C 11,7 C 1,8 km/h (1 Bft)
08.10.2013 11:20 11,2 C 95 % 1024,8 hPa 0,0 l/m 1,8 km/h (1 Bft) S 180 10,4 C 11,7 C 3,4 km/h (1 Bft)
08.10.2013 11:25 11,3 C 95 % 1025,0 hPa 0,0 l/m 1,8 km/h (1 Bft) SW 225 10,5 C 11,8 C 3,5 km/h (1 Bft)
08.10.2013 11:30 11,3 C 94 % 1025,0 hPa 0,0 l/m 2,1 km/h (1 Bft) W-SW 247 10,4 C 11,8 C 4,0 km/h (1 Bft)
08.10.2013 11:35 11,1 C 94 % 1025,0 hPa 0,0 l/m 1,9 km/h (1 Bft) O-NO 67 10,2 C 11,8 C 2,6 km/h (1 Bft)
08.10.2013 11:40 11,2 C 94 % 1025,0 hPa 0,0 l/m 1,4 km/h (1 Bft) S-SW 202 10,3 C 11,8 C 2,6 km/h (1 Bft)
08.10.2013 11:45 11,4 C 94 % 1025,1 hPa 0,0 l/m 1,1 km/h (1 Bft) W-SW 247 10,5 C 11,8 C 0,0 km/h (0 Bft)
08.10.2013 11:50 11,4 C 94 % 1025,1 hPa 0,0 l/m 1,0 km/h (0 Bft) W 270 10,5 C 11,9 C 2,1 km/h (1 Bft)
08.10.2013 11:55 11,4 C 94 % 1025,1 hPa 0,0 l/m 0,5 km/h (0 Bft) W 270 10,5 C 12,1 C 1,6 km/h (1 Bft)
08.10.2013 12:00 11,4 C 94 % 1025,1 hPa 0,0 l/m 1,0 km/h (0 Bft) W 270 10,5 C 12,1 C 3,1 km/h (1 Bft)
08.10.2013 12:05 11,4 C 93 % 1025,0 hPa 0,0 l/m 1,1 km/h (1 Bft) W 270 10,3 C 12,0 C 0,0 km/h (0 Bft)
08.10.2013 12:10 11,4 C 93 % 1025,0 hPa 0,0 l/m 1,3 km/h (1 Bft) S 180 10,3 C 12,0 C 3,4 km/h (1 Bft)
08.10.2013 12:15 11,4 C 93 % 1025,0 hPa 0,0 l/m 1,4 km/h (1 Bft) S-SW 202 10,3 C 11,9 C 3,9 km/h (1 Bft)
08.10.2013 12:20 11,4 C 93 % 1025,0 hPa 0,0 l/m 1,6 km/h (1 Bft) W-SW 247 10,3 C 11,9 C 3,7 km/h (1 Bft)
08.10.2013 12:23 11,5 C 93 % 1025,2 hPa 0,0 l/m 2,1 km/h (1 Bft) S 180 10,4 C 11,9 C 3,1 km/h (1 Bft)
08.10.2013 12:25 11,5 C 93 % 1025,2 hPa 0,0 l/m 2,1 km/h (1 Bft) S 180 10,4 C 11,9 C 3,1 km/h (1 Bft)
08.10.2013 12:30 11,5 C 93 % 1025,2 hPa 0,0 l/m 1,9 km/h (1 Bft) W-SW 247 10,4 C 12,0 C 3,1 km/h (1 Bft)
08.10.2013 12:35 11,5 C 93 % 1025,2 hPa 0,0 l/m 1,6 km/h (1 Bft) W-SW 247 10,4 C 12,0 C 3,7 km/h (1 Bft)
08.10.2013 12:40 11,5 C 92 % 1025,2 hPa 0,0 l/m 2,3 km/h (1 Bft) S-SO 157 10,2 C 12,0 C 3,9 km/h (1 Bft)
08.10.2013 12:45 11,7 C 92 % 1024,8 hPa 0,0 l/m 2,7 km/h (1 Bft) S 180 10,4 C 12,2 C 2,9 km/h (1 Bft)
08.10.2013 12:50 11,8 C 92 % 1024,8 hPa 0,0 l/m 2,3 km/h (1 Bft) S-SW 202 10,5 C 12,2 C 2,7 km/h (1 Bft)
08.10.2013 12:55 11,7 C 92 % 1024,8 hPa 0,0 l/m 2,4 km/h (1 Bft) W-SW 247 10,4 C 12,3 C 6,0 km/h (2 Bft)
08.10.2013 13:00 11,7 C 92 % 1024,8 hPa 0,0 l/m 2,7 km/h (1 Bft) S 180 10,4 C 12,4 C 5,1 km/h (1 Bft)
08.10.2013 13:05 11,8 C 92 % 1024,8 hPa 0,0 l/m 2,9 km/h (1 Bft) S-SW 202 10,5 C 12,4 C 4,5 km/h (1 Bft)
08.10.2013 13:10 12,0 C 92 % 1024,8 hPa 0,0 l/m 3,4 km/h (1 Bft) S-SW 202 10,7 C 12,4 C 4,2 km/h (1 Bft)
08.10.2013 13:15 12,0 C 91 % 1024,8 hPa 0,0 l/m 4,0 km/h (1 Bft) S 180 10,6 C 12,7 C 7,7 km/h (2 Bft)
08.10.2013 13:20 12,1 C 91 % 1024,8 hPa 0,0 l/m 3,7 km/h (1 Bft) O 90 10,7 C 12,7 C 3,4 km/h (1 Bft)
08.10.2013 13:25 12,0 C 91 % 1024,6 hPa 0,0 l/m 3,7 km/h (1 Bft) S-SO 157 10,6 C 12,7 C 6,8 km/h (2 Bft)
08.10.2013 13:30 11,9 C 91 % 1024,6 hPa 0,0 l/m 4,2 km/h (1 Bft) S 180 10,5 C 12,6 C 6,8 km/h (2 Bft)
08.10.2013 13:35 12,0 C 89 % 1024,6 hPa 0,0 l/m 4,8 km/h (1 Bft) SW 225 10,2 C 12,6 C 7,9 km/h (2 Bft)
08.10.2013 13:40 12,3 C 89 % 1024,6 hPa 0,0 l/m 4,7 km/h (1 Bft) S 180 10,5 C 12,8 C 6,3 km/h (2 Bft)
08.10.2013 13:45 12,4 C 89 % 1024,6 hPa 0,0 l/m 4,0 km/h (1 Bft) S 180 10,6 C 12,9 C 9,3 km/h (2 Bft)
08.10.2013 13:50 12,4 C 89 % 1024,6 hPa 0,0 l/m 4,5 km/h (1 Bft) W-SW 247 10,6 C 13,0 C 4,3 km/h (1 Bft)
08.10.2013 13:55 12,3 C 89 % 1024,6 hPa 0,0 l/m 3,7 km/h (1 Bft) S 180 10,5 C 13,0 C 0,0 km/h (0 Bft)
08.10.2013 14:00 12,2 C 89 % 1024,6 hPa 0,0 l/m 3,5 km/h (1 Bft) SO 135 10,4 C 13,0 C 3,4 km/h (1 Bft)
08.10.2013 14:05 11,9 C 89 % 1024,6 hPa 0,0 l/m 3,4 km/h (1 Bft) S-SW 202 10,1 C 12,8 C 2,4 km/h (1 Bft)
08.10.2013 14:10 11,8 C 89 % 1024,6 hPa 0,0 l/m 3,4 km/h (1 Bft) W-SW 247 10,0 C 12,6 C 6,0 km/h (2 Bft)
08.10.2013 14:15 11,8 C 89 % 1024,6 hPa 0,0 l/m 3,2 km/h (1 Bft) W-SW 247 10,0 C 12,4 C 5,0 km/h (1 Bft)
08.10.2013 14:20 11,8 C 90 % 1024,6 hPa 0,0 l/m 3,5 km/h (1 Bft) S 180 10,2 C 12,4 C 4,3 km/h (1 Bft)
08.10.2013 14:25 11,8 C 90 % 1024,5 hPa 0,0 l/m 3,5 km/h (1 Bft) W-SW 247 10,2 C 12,3 C 8,9 km/h (2 Bft)
08.10.2013 14:30 11,7 C 89 % 1024,5 hPa 0,0 l/m 3,9 km/h (1 Bft) S-SW 202 9,9 C 12,2 C 4,8 km/h (1 Bft)
08.10.2013 14:35 11,8 C 89 % 1024,5 hPa 0,0 l/m 4,0 km/h (1 Bft) W-SW 247 10,0 C 12,2 C 4,8 km/h (1 Bft)
08.10.2013 14:40 11,8 C 89 % 1024,5 hPa 0,0 l/m 3,9 km/h (1 Bft) SW 225 10,0 C 12,2 C 3,7 km/h (1 Bft)
08.10.2013 14:45 11,6 C 89 % 1024,4 hPa 0,0 l/m 4,3 km/h (1 Bft) S-SW 202 9,8 C 12,2 C 2,4 km/h (1 Bft)
08.10.2013 14:50 11,5 C 89 % 1024,4 hPa 0,0 l/m 4,2 km/h (1 Bft) W-SW 247 9,8 C 12,1 C 7,7 km/h (2 Bft)
08.10.2013 14:55 11,5 C 89 % 1024,4 hPa 0,0 l/m 3,5 km/h (1 Bft) W-SW 247 9,8 C 11,9 C 4,5 km/h (1 Bft)
08.10.2013 15:00 11,3 C 89 % 1024,4 hPa 0,0 l/m 3,9 km/h (1 Bft) W-SW 247 9,6 C 11,8 C 3,2 km/h (1 Bft)
08.10.2013 15:05 11,3 C 89 % 1024,4 hPa 0,0 l/m 4,2 km/h (1 Bft) W 270 9,6 C 11,7 C 6,1 km/h (2 Bft)
08.10.2013 15:10 11,2 C 89 % 1024,4 hPa 0,0 l/m 4,0 km/h (1 Bft) W 270 9,5 C 11,7 C 6,0 km/h (2 Bft)
08.10.2013 15:15 11,2 C 89 % 1024,4 hPa 0,0 l/m 4,5 km/h (1 Bft) S 180 9,5 C 11,6 C 6,1 km/h (2 Bft)
08.10.2013 15:20 11,1 C 89 % 1024,4 hPa 0,0 l/m 5,0 km/h (1 Bft) S-SW 202 9,4 C 11,4 C 9,8 km/h (2 Bft)
08.10.2013 15:25 11,2 C 89 % 1024,5 hPa 0,0 l/m 4,7 km/h (1 Bft) S-SW 202 9,5 C 11,5 C 3,4 km/h (1 Bft)
08.10.2013 15:30 11,2 C 89 % 1024,5 hPa 0,0 l/m 4,3 km/h (1 Bft) W-SW 247 9,5 C 11,5 C 5,0 km/h (1 Bft)
08.10.2013 15:35 11,1 C 89 % 1024,5 hPa 0,0 l/m 3,7 km/h (1 Bft) SW 225 9,4 C 11,5 C 5,5 km/h (1 Bft)
08.10.2013 15:40 11,1 C 89 % 1024,5 hPa 0,0 l/m 3,2 km/h (1 Bft) W 270 9,4 C 11,5 C 4,7 km/h (1 Bft)
08.10.2013 15:45 11,3 C 89 % 1024,7 hPa 0,0 l/m 1,9 km/h (1 Bft) S-SW 202 9,6 C 11,6 C 1,9 km/h (1 Bft)
08.10.2013 15:50 11,3 C 90 % 1024,7 hPa 0,0 l/m 1,1 km/h (1 Bft) S-SW 202 9,7 C 11,7 C 2,7 km/h (1 Bft)
08.10.2013 15:55 11,3 C 90 % 1024,7 hPa 0,0 l/m 0,8 km/h (0 Bft) W-NW 292 9,7 C 11,7 C 0,0 km/h (0 Bft)
08.10.2013 16:00 11,3 C 90 % 1024,7 hPa 0,0 l/m 1,1 km/h (1 Bft) S 180 9,7 C 11,7 C 0,0 km/h (0 Bft)
08.10.2013 16:05 11,3 C 90 % 1024,6 hPa 0,0 l/m 1,0 km/h (0 Bft) W-SW 247 9,7 C 11,8 C 0,0 km/h (0 Bft)
08.10.2013 16:10 11,2 C 90 % 1024,6 hPa 0,0 l/m 1,8 km/h (1 Bft) W-SW 247 9,6 C 11,7 C 2,7 km/h (1 Bft)
08.10.2013 16:15 11,2 C 89 % 1024,6 hPa 0,0 l/m 2,9 km/h (1 Bft) S 180 9,5 C 11,7 C 2,3 km/h (1 Bft)
08.10.2013 16:20 11,3 C 90 % 1024,6 hPa 0,0 l/m 2,3 km/h (1 Bft) S 180 9,7 C 11,6 C 1,9 km/h (1 Bft)
08.10.2013 16:25 11,2 C 89 % 1024,7 hPa 0,0 l/m 1,6 km/h (1 Bft) SW 225 9,5 C 11,6 C 4,0 km/h (1 Bft)
08.10.2013 16:30 11,2 C 89 % 1024,7 hPa 0,0 l/m 1,9 km/h (1 Bft) S 180 9,5 C 11,6 C 3,4 km/h (1 Bft)
08.10.2013 16:35 11,2 C 90 % 1024,7 hPa 0,0 l/m 2,4 km/h (1 Bft) S-SW 202 9,6 C 11,5 C 3,4 km/h (1 Bft)
08.10.2013 16:40 11,2 C 90 % 1024,7 hPa 0,0 l/m 2,3 km/h (1 Bft) S-SW 202 9,6 C 11,5 C 2,1 km/h (1 Bft)
08.10.2013 16:45 11,1 C 89 % 1024,6 hPa 0,0 l/m 3,2 km/h (1 Bft) W 270 9,4 C 11,5 C 3,5 km/h (1 Bft)
08.10.2013 16:50 11,1 C 89 % 1024,6 hPa 0,0 l/m 3,4 km/h (1 Bft) W-SW 247 9,4 C 11,4 C 3,2 km/h (1 Bft)
08.10.2013 16:55 11,1 C 89 % 1024,6 hPa 0,0 l/m 2,9 km/h (1 Bft) S 180 9,4 C 11,4 C 1,8 km/h (1 Bft)
08.10.2013 17:00 11,1 C 89 % 1024,6 hPa 0,0 l/m 2,6 km/h (1 Bft) S-SW 202 9,4 C 11,4 C 3,1 km/h (1 Bft)
08.10.2013 17:05 11,1 C 89 % 1024,8 hPa 0,0 l/m 1,8 km/h (1 Bft) W 270 9,4 C 11,5 C 2,1 km/h (1 Bft)
08.10.2013 17:10 11,0 C 89 % 1024,8 hPa 0,0 l/m 1,6 km/h (1 Bft) W 270 9,3 C 11,4 C 2,3 km/h (1 Bft)
08.10.2013 17:15 10,9 C 89 % 1024,8 hPa 0,0 l/m 1,0 km/h (0 Bft) W-SW 247 9,2 C 11,2 C 0,0 km/h (0 Bft)
08.10.2013 17:20 10,9 C 90 % 1024,8 hPa 0,0 l/m 0,5 km/h (0 Bft) S-SW 202 9,3 C 11,2 C 0,0 km/h (0 Bft)
08.10.2013 17:25 10,8 C 90 % 1024,8 hPa 0,0 l/m 0,0 km/h (0 Bft) W-NW 292 9,2 C 11,1 C 0,0 km/h (0 Bft)
08.10.2013 17:30 10,8 C 90 % 1024,8 hPa 0,0 l/m 0,2 km/h (0 Bft) W-NW 292 9,2 C 11,1 C 0,0 km/h (0 Bft)
08.10.2013 17:35 10,7 C 89 % 1024,8 hPa 0,0 l/m 0,2 km/h (0 Bft) W 270 9,0 C 11,1 C 0,0 km/h (0 Bft)
08.10.2013 17:40 10,8 C 89 % 1024,8 hPa 0,0 l/m 0,0 km/h (0 Bft) W 270 9,1 C 11,1 C 0,0 km/h (0 Bft)
08.10.2013 17:45 10,8 C 90 % 1024,8 hPa 0,0 l/m 0,0 km/h (0 Bft) S-SW 202 9,2 C 11,0 C 0,0 km/h (0 Bft)
08.10.2013 17:50 10,8 C 90 % 1024,8 hPa 0,0 l/m 0,2 km/h (0 Bft) S 180 9,2 C 11,0 C 2,4 km/h (1 Bft)
08.10.2013 17:55 10,7 C 90 % 1024,8 hPa 0,0 l/m 0,3 km/h (0 Bft) SO 135 9,1 C 11,0 C 0,0 km/h (0 Bft)
08.10.2013 18:00 10,6 C 90 % 1024,8 hPa 0,0 l/m 0,3 km/h (0 Bft) SO 135 9,0 C 11,0 C 0,0 km/h (0 Bft)
08.10.2013 18:05 10,6 C 90 % 1025,0 hPa 0,0 l/m 0,0 km/h (0 Bft) SO 135 9,0 C 10,9 C 0,0 km/h (0 Bft)
08.10.2013 18:10 10,5 C 90 % 1025,0 hPa 0,0 l/m 0,0 km/h (0 Bft) SO 135 8,9 C 10,8 C 0,0 km/h (0 Bft)
08.10.2013 18:15 10,4 C 90 % 1025,0 hPa 0,0 l/m 0,0 km/h (0 Bft) SO 135 8,8 C 10,8 C 0,0 km/h (0 Bft)
08.10.2013 18:20 10,4 C 90 % 1025,0 hPa 0,0 l/m 0,0 km/h (0 Bft) SO 135 8,8 C 10,7 C 0,0 km/h (0 Bft)
08.10.2013 18:23 10,4 C 90 % 1025,1 hPa 0,0 l/m 0,0 km/h (0 Bft) SO 135 8,8 C 10,6 C 0,0 km/h (0 Bft)
08.10.2013 18:25 10,4 C 90 % 1025,1 hPa 0,0 l/m 0,0 km/h (0 Bft) SO 135 8,8 C 10,6 C 0,0 km/h (0 Bft)
08.10.2013 18:30 10,3 C 90 % 1025,1 hPa 0,0 l/m 0,0 km/h (0 Bft) SO 135 8,7 C 10,6 C 0,0 km/h (0 Bft)
08.10.2013 18:35 10,3 C 90 % 1025,1 hPa 0,0 l/m 0,2 km/h (0 Bft) S 180 8,7 C 10,5 C 0,0 km/h (0 Bft)
08.10.2013 18:40 10,3 C 90 % 1025,1 hPa 0,0 l/m 0,2 km/h (0 Bft) S-SO 157 8,7 C 10,5 C 0,0 km/h (0 Bft)
08.10.2013 18:45 10,2 C 90 % 1024,9 hPa 0,0 l/m 0,0 km/h (0 Bft) SO 135 8,6 C 10,5 C 0,0 km/h (0 Bft)
08.10.2013 18:50 10,2 C 90 % 1024,9 hPa 0,0 l/m 0,0 km/h (0 Bft) S-SO 157 8,6 C 10,4 C 0,0 km/h (0 Bft)
08.10.2013 18:55 10,2 C 90 % 1024,9 hPa 0,0 l/m 0,0 km/h (0 Bft) S-SO 157 8,6 C 10,4 C 0,0 km/h (0 Bft)
08.10.2013 19:00 10,2 C 90 % 1024,9 hPa 0,0 l/m 0,0 km/h (0 Bft) SO 135 8,6 C 10,3 C 0,0 km/h (0 Bft)
08.10.2013 19:05 10,1 C 90 % 1025,0 hPa 0,0 l/m 0,0 km/h (0 Bft) SO 135 8,5 C 10,3 C 0,0 km/h (0 Bft)
08.10.2013 19:10 10,1 C 90 % 1025,0 hPa 0,0 l/m 0,0 km/h (0 Bft) SO 135 8,5 C 10,3 C 0,0 km/h (0 Bft)
08.10.2013 19:15 10,1 C 90 % 1025,0 hPa 0,0 l/m 0,0 km/h (0 Bft) SO 135 8,5 C 10,2 C 0,0 km/h (0 Bft)
08.10.2013 19:20 10,1 C 91 % 1025,0 hPa 0,0 l/m 0,0 km/h (0 Bft) SO 135 8,7 C 10,2 C 0,0 km/h (0 Bft)
08.10.2013 19:25 10,0 C 91 % 1025,2 hPa 0,0 l/m 0,6 km/h (0 Bft) O 90 8,6 C 10,2 C 1,8 km/h (1 Bft)
08.10.2013 19:30 10,0 C 91 % 1025,2 hPa 0,0 l/m 1,1 km/h (1 Bft) O-NO 67 8,6 C 10,2 C 1,6 km/h (1 Bft)
08.10.2013 19:35 10,0 C 91 % 1025,2 hPa 0,0 l/m 1,0 km/h (0 Bft) O-SO 112 8,6 C 10,2 C 0,0 km/h (0 Bft)
08.10.2013 19:40 10,0 C 91 % 1025,2 hPa 0,0 l/m 0,6 km/h (0 Bft) O 90 8,6 C 10,1 C 0,0 km/h (0 Bft)
08.10.2013 19:45 10,0 C 91 % 1025,2 hPa 0,0 l/m 0,3 km/h (0 Bft) O-SO 112 8,6 C 10,1 C 0,0 km/h (0 Bft)
08.10.2013 19:50 10,0 C 91 % 1025,2 hPa 0,0 l/m 0,2 km/h (0 Bft) O 90 8,6 C 10,1 C 0,0 km/h (0 Bft)
08.10.2013 19:55 10,0 C 91 % 1025,2 hPa 0,0 l/m 0,2 km/h (0 Bft) NO 45 8,6 C 10,1 C 0,0 km/h (0 Bft)
08.10.2013 20:00 9,9 C 91 % 1025,2 hPa 0,0 l/m 0,2 km/h (0 Bft) NO 45 8,5 C 10,1 C 0,0 km/h (0 Bft)
08.10.2013 20:05 9,9 C 91 % 1025,2 hPa 0,0 l/m 0,2 km/h (0 Bft) NO 45 8,5 C 10,1 C 0,0 km/h (0 Bft)
08.10.2013 20:10 9,9 C 91 % 1025,2 hPa 0,0 l/m 0,0 km/h (0 Bft) O 90 8,5 C 10,1 C 1,9 km/h (1 Bft)
08.10.2013 20:15 9,9 C 91 % 1025,2 hPa 0,0 l/m 0,2 km/h (0 Bft) O 90 8,5 C 10,1 C 0,0 km/h (0 Bft)
08.10.2013 20:20 9,9 C 91 % 1025,2 hPa 0,0 l/m 0,3 km/h (0 Bft) NO 45 8,5 C 10,0 C 0,0 km/h (0 Bft)
08.10.2013 20:25 9,8 C 91 % 1025,2 hPa 0,0 l/m 0,2 km/h (0 Bft) NO 45 8,4 C 10,0 C 0,0 km/h (0 Bft)
08.10.2013 20:30 9,8 C 91 % 1025,2 hPa 0,0 l/m 0,0 km/h (0 Bft) NO 45 8,4 C 10,0 C 0,0 km/h (0 Bft)
08.10.2013 20:35 9,8 C 91 % 1025,2 hPa 0,0 l/m 0,2 km/h (0 Bft) O-SO 112 8,4 C 10,0 C 0,0 km/h (0 Bft)
08.10.2013 20:40 9,8 C 91 % 1025,2 hPa 0,0 l/m 0,2 km/h (0 Bft) SO 135 8,4 C 10,0 C 0,0 km/h (0 Bft)
08.10.2013 20:45 9,8 C 91 % 1025,4 hPa 0,0 l/m 0,2 km/h (0 Bft) NO 45 8,4 C 9,9 C 0,0 km/h (0 Bft)
08.10.2013 20:50 9,8 C 91 % 1025,4 hPa 0,0 l/m 0,3 km/h (0 Bft) O-NO 67 8,4 C 9,9 C 1,9 km/h (1 Bft)
08.10.2013 20:55 9,7 C 91 % 1025,4 hPa 0,0 l/m 0,3 km/h (0 Bft) NO 45 8,3 C 9,9 C 0,0 km/h (0 Bft)
08.10.2013 21:00 9,8 C 91 % 1025,4 hPa 0,0 l/m 0,2 km/h (0 Bft) NO 45 8,4 C 9,9 C 0,0 km/h (0 Bft)
08.10.2013 21:05 9,7 C 91 % 1025,4 hPa 0,0 l/m 0,0 km/h (0 Bft) O-NO 67 8,3 C 9,9 C 0,0 km/h (0 Bft)
08.10.2013 21:10 9,7 C 91 % 1025,4 hPa 0,0 l/m 0,6 km/h (0 Bft) O 90 8,3 C 9,9 C 2,9 km/h (1 Bft)
08.10.2013 21:15 9,8 C 91 % 1025,4 hPa 0,0 l/m 1,0 km/h (0 Bft) O-NO 67 8,4 C 9,9 C 0,0 km/h (0 Bft)
08.10.2013 21:20 9,8 C 91 % 1025,4 hPa 0,0 l/m 0,5 km/h (0 Bft) N-NO 22 8,4 C 9,9 C 0,0 km/h (0 Bft)
08.10.2013 21:25 9,8 C 91 % 1025,8 hPa 0,0 l/m 0,0 km/h (0 Bft) O-NO 67 8,4 C 9,9 C 0,0 km/h (0 Bft)
08.10.2013 21:30 9,7 C 91 % 1025,8 hPa 0,0 l/m 0,3 km/h (0 Bft) NO 45 8,3 C 9,9 C 1,9 km/h (1 Bft)
08.10.2013 21:35 9,7 C 91 % 1025,8 hPa 0,0 l/m 1,6 km/h (1 Bft) O 90 8,3 C 9,9 C 1,8 km/h (1 Bft)
08.10.2013 21:40 9,7 C 91 % 1025,8 hPa 0,0 l/m 1,4 km/h (1 Bft) NO 45 8,3 C 9,9 C 0,0 km/h (0 Bft)
08.10.2013 21:45 9,7 C 91 % 1025,3 hPa 0,0 l/m 0,6 km/h (0 Bft) SO 135 8,3 C 9,9 C 0,0 km/h (0 Bft)
08.10.2013 21:50 9,7 C 91 % 1025,3 hPa 0,0 l/m 0,6 km/h (0 Bft) SO 135 8,3 C 9,9 C 0,0 km/h (0 Bft)
08.10.2013 21:55 9,8 C 91 % 1025,3 hPa 0,0 l/m 0,0 km/h (0 Bft) SO 135 8,4 C 9,9 C 0,0 km/h (0 Bft)
08.10.2013 22:00 9,7 C 91 % 1025,3 hPa 0,0 l/m 0,0 km/h (0 Bft) O 90 8,3 C 9,9 C 0,0 km/h (0 Bft)
08.10.2013 22:05 9,7 C 91 % 1025,3 hPa 0,0 l/m 0,0 km/h (0 Bft) O 90 8,3 C 9,9 C 0,0 km/h (0 Bft)
08.10.2013 22:10 9,7 C 91 % 1025,3 hPa 0,0 l/m 0,0 km/h (0 Bft) O-SO 112 8,3 C 9,9 C 0,0 km/h (0 Bft)
08.10.2013 22:15 9,7 C 91 % 1025,3 hPa 0,0 l/m 0,0 km/h (0 Bft) O-NO 67 8,3 C 9,9 C 0,0 km/h (0 Bft)
08.10.2013 22:20 9,7 C 91 % 1025,3 hPa 0,0 l/m 0,0 km/h (0 Bft) O-NO 67 8,3 C 9,9 C 0,0 km/h (0 Bft)
08.10.2013 22:25 9,7 C 91 % 1025,4 hPa 0,0 l/m 0,0 km/h (0 Bft) O-NO 67 8,3 C 9,9 C 0,0 km/h (0 Bft)
08.10.2013 22:30 9,7 C 91 % 1025,4 hPa 0,0 l/m 0,0 km/h (0 Bft) NO 45 8,3 C 9,9 C 0,0 km/h (0 Bft)
08.10.2013 22:35 9,7 C 91 % 1025,4 hPa 0,0 l/m 0,0 km/h (0 Bft) O 90 8,3 C 9,9 C 0,0 km/h (0 Bft)
08.10.2013 22:40 9,7 C 91 % 1025,4 hPa 0,0 l/m 0,0 km/h (0 Bft) NO 45 8,3 C 9,9 C 0,0 km/h (0 Bft)
08.10.2013 22:45 9,7 C 91 % 1025,8 hPa 0,0 l/m 0,0 km/h (0 Bft) NO 45 8,3 C 9,9 C 0,0 km/h (0 Bft)
08.10.2013 22:50 9,7 C 91 % 1025,8 hPa 0,0 l/m 0,0 km/h (0 Bft) NO 45 8,3 C 9,8 C 0,0 km/h (0 Bft)
08.10.2013 22:55 9,7 C 91 % 1025,8 hPa 0,0 l/m 0,0 km/h (0 Bft) N-NO 22 8,3 C 9,8 C 0,0 km/h (0 Bft)
08.10.2013 23:00 9,7 C 91 % 1025,8 hPa 0,0 l/m 0,0 km/h (0 Bft) N-NO 22 8,3 C 9,8 C 0,0 km/h (0 Bft)
08.10.2013 23:05 9,7 C 91 % 1025,5 hPa 0,0 l/m 0,0 km/h (0 Bft) O 90 8,3 C 9,8 C 0,0 km/h (0 Bft)
08.10.2013 23:10 9,7 C 91 % 1025,5 hPa 0,0 l/m 0,0 km/h (0 Bft) O-NO 67 8,3 C 9,8 C 0,0 km/h (0 Bft)
08.10.2013 23:15 9,7 C 91 % 1025,5 hPa 0,0 l/m 0,0 km/h (0 Bft) O-SO 112 8,3 C 9,8 C 0,0 km/h (0 Bft)
08.10.2013 23:20 9,7 C 91 % 1025,5 hPa 0,0 l/m 0,0 km/h (0 Bft) SO 135 8,3 C 9,8 C 0,0 km/h (0 Bft)
08.10.2013 23:25 9,7 C 91 % 1025,3 hPa 0,0 l/m 0,0 km/h (0 Bft) NO 45 8,3 C 9,8 C 0,0 km/h (0 Bft)
08.10.2013 23:30 9,6 C 91 % 1025,3 hPa 0,0 l/m 0,0 km/h (0 Bft) O-NO 67 8,2 C 9,8 C 0,0 km/h (0 Bft)
08.10.2013 23:35 9,7 C 91 % 1025,3 hPa 0,0 l/m 0,0 km/h (0 Bft) O 90 8,3 C 9,8 C 0,0 km/h (0 Bft)
08.10.2013 23:40 9,7 C 91 % 1025,3 hPa 0,0 l/m 0,0 km/h (0 Bft) O-SO 112 8,3 C 9,8 C 0,0 km/h (0 Bft)
08.10.2013 23:45 9,7 C 91 % 1025,1 hPa 0,0 l/m 0,0 km/h (0 Bft) SO 135 8,3 C 9,8 C 0,0 km/h (0 Bft)
08.10.2013 23:50 9,7 C 91 % 1025,1 hPa 0,0 l/m 0,0 km/h (0 Bft) O-SO 112 8,3 C 9,8 C 0,0 km/h (0 Bft)
08.10.2013 23:55 9,7 C 91 % 1025,1 hPa 0,0 l/m 0,0 km/h (0 Bft) NO 45 8,3 C 9,8 C 0,0 km/h (0 Bft)
_ Min-Zeit 23:30 17:40 06:20 - 23:55 - - 23:30 23:55 23:55
Minimum _ 9,6 C 89 % 1023,7 hPa - 0,0 km/h (0 Bft) - - 8,2 C 9,8 C 0,0 km/h (0 Bft)
_ Max-Zeit 13:50 10:20 23:00 23:55 15:20 - - 13:10 14:00 15:20
Maximum _ 12,4 C 96 % 1025,8 hPa 0,0 l/m 5,0 km/h
S-SW (1 Bft)
- - 10,7 C 13,0 C 9,8 km/h
S-SW (2 Bft)
Durchschnitt _ 10,5 C 93 % 1024,6 hPa #0,0 l/m 1,0 km/h (0 Bft) S - 9,5 C 10,8 C 1,4 km/h (1 Bft)